World > North America > United States > Mississippi > Tchula  

Tchula, MS Hourly Weather Updates

Feedback E-mail the Weather

Quick Clicks

Tchula, MS Weather Maps

°F °C°F °C
Tchula Weather Map
UTC Time: 6/20/2024, 14:38
Your Time:

Tchula, MS Regional Weather

Expires:202406201500;;352796
ASUS44 KJAN 201410
RWRMS 

MISSISSIPPI HOURLY WEATHER ROUNDUP
NATIONAL WEATHER SERVICE JACKSON MS
900 AM CDT THU JUN 20 2024

NOTE: "FAIR: INDICATES FEW OR NO CLOUDS BELOW 12,000 FEET WITH NO
SIGNIFICANT WEATHER AND/OR OBSTRUCTIONS TO VISIBILITY.


MSZ001>002-007>008-010>013-018>021-025>028-034>036-201500-
NORTHWEST MISSISSIPPI
  
CITY           SKY/WX    TMP DP  RH WIND       PRES   REMARKS
BATESVILLE     MOSUNNY   81  66  61 SE6       30.25S                  
CLARKSDALE       N/A     79  79 100 E7        30.25R                  
GREENWOOD      MOSUNNY   82  68  62 E7        30.23R                  
GREENVILLE     PTSUNNY   82  70  66 E8        30.22R                  
OLIVE BRANCH   SUNNY     79  68  69 SE10G16   30.26R                  
OXFORD         SUNNY     79  66  65 SE9       30.29R                  
TUNICA         PTSUNNY   79  73  80 SE9       30.26R                  
WINONA         MOSUNNY   78  68  70 CALM      30.25R                  
$$


SKY/WX - Weather  TMP - Temperature  DP - Dew Point  RH - Humidity
WIND - Wind Direction/Speed PRES - Barometric Pressure VSB - Visibility
WCI - Wind Chill Index E13G22 Wind - East Wind 13 mph/Gusts of 22 mph

Trending Headlines

Trending Entertainment Headlines

Tchula Radar Loop

Use the map search tool if you want to place a location marker on the radar map...

Tchula Quick Facts

National Two Day Weather Forecast


E-mail the Tchula Weather Forecast

Voice your opinion or tell us about page issues...